[[{"header":{"parameterUnit":"m.s-1","parameterCategory":2,"la1":30.2991,"la2":30.254,"lo1":-89.0895,"lo2":-89.0444,"dy":0.0017,"dx":0.0017,"nx":28,"ny":28,"refTime":"2025-03-20T21:00:00:Z","depth":"0","parameterNumber":2,"parameterNumberName":"U-component_of_CURRENTS"},"data":[0,0,0,0,0,0,0,0,0,0,0,0,0,0,0,0,0,0,0,0,0,0,0,0,0,0,0,0,0,0,0,0,0,0,0,0,0,0,0,0,0,0,0,0,0,0,0,0,0,0,0,0,0,0,0,0,0,0,-0.3223,-0.3224,0,-0.3283,-0.3283,-0.3284,-0.3251,-0.325,-0.3248,-0.3247,-0.3256,-0.3257,-0.3259,0,0,0,0,0,0,0,0,0,0,0,0,0,-0.3141,-0.3142,-0.3223,-0.3224,-0.3225,-0.3283,-0.3283,-0.3284,-0.3251,-0.325,-0.3248,-0.3246,-0.3255,-0.3257,-0.3259,0,0,0,0,0,0,0,0,0,0,0,0,0,-0.3184,-0.3143,-0.3223,-0.3217,-0.3218,-0.3283,-0.3283,-0.3284,-0.3252,-0.3249,-0.3247,-0.3245,-0.3255,-0.3257,-0.3259,-0.3315,0,0,-0.3266,-0.3267,0,0,0,0,0,0,0,0,-0.3181,-0.3186,-0.3217,-0.3218,-0.3218,-0.326,-0.3258,-0.3293,-0.3252,-0.3236,-0.3247,-0.3244,-0.3256,-0.3258,-0.3271,-0.3316,-0.3316,-0.3266,-0.3268,-0.3269,-0.3269,0,0,0,0,0,0,0,-0.3178,-0.3184,-0.3244,-0.3218,-0.3219,-0.3233,-0.3236,-0.3265,-0.3254,-0.3237,-0.3236,-0.3247,-0.3255,-0.3268,-0.327,-0.3316,-0.3266,-0.3268,-0.327,-0.3271,-0.3398,-0.3399,0,0,0,0,0,0,-0.3176,-0.3181,-0.3242,-0.3246,-0.3197,-0.3236,-0.324,-0.3246,-0.3254,-0.3255,-0.3249,-0.3246,-0.3266,-0.3268,-0.3271,-0.3322,-0.3269,-0.3271,-0.3272,-0.3396,-0.3398,-0.34,0,0,0,0,0,0,-0.3174,-0.318,-0.324,-0.3217,-0.3226,-0.324,-0.3248,-0.3249,-0.3253,-0.3265,-0.3263,-0.3251,-0.3264,-0.3267,-0.3296,-0.3322,-0.3272,-0.3274,-0.3393,-0.3396,-0.3399,-0.3435,0,0,0,0,0,0,-0.3171,-0.3179,-0.3177,-0.3217,-0.3227,-0.3274,-0.325,-0.3251,-0.3265,-0.3261,-0.3267,-0.3266,-0.3263,-0.3292,-0.3298,-0.3325,-0.3276,-0.3391,-0.3395,-0.3398,-0.3432,-0.3439,-0.3446,0,0,0,0,0,-0.3168,-0.3178,-0.3176,-0.3183,-0.3225,-0.3275,-0.3282,-0.3283,-0.3267,-0.3277,-0.3282,-0.3265,-0.332,-0.3296,-0.3302,-0.333,-0.3389,-0.3394,-0.3398,-0.3428,-0.3438,-0.3445,0,0,0,0,0,0,-0.3141,-0.3178,-0.3175,-0.3195,-0.3229,-0.327,-0.3279,-0.3287,-0.3302,-0.3291,-0.3291,-0.3293,-0.3328,-0.3332,-0.3306,-0.338,-0.3352,-0.3358,-0.3374,-0.3382,-0.3389,-0.3373,-0.3278,0,0,0,0,0,-0.3136,-0.3147,-0.3192,-0.3204,-0.3222,-0.3251,-0.3268,-0.3277,-0.3301,-0.3303,-0.3311,-0.3326,-0.3358,-0.3368,-0.3391,-0.3435,-0.3395,-0.3459,-0.3466,-0.3471,-0.3464,-0.3447,-0.345,-0.3415,-0.3415,-0.3415,0,0,-0.3125,-0.315,-0.3153,-0.3199,-0.3221,-0.3261,-0.3255,-0.3287,-0.3317,-0.3305,-0.3336,-0.335,-0.3375,-0.3419,-0.3436,-0.3421,-0.3457,-0.3477,-0.3481,-0.3471,-0.3451,-0.3454,-0.3457,-0.3418,-0.3417,-0.3417,0,0,-0.3123,-0.3137,-0.3148,-0.3188,-0.3232,-0.3262,-0.3272,-0.3316,-0.3327,-0.3372,-0.3372,-0.3401,-0.3444,-0.3468,-0.3487,-0.3552,-0.3494,-0.3562,-0.3584,-0.3567,-0.3569,-0.357,-0.3494,-0.3488,-0.3566,-0.3566,-0.3566,0,-0.3104,-0.3133,-0.316,-0.3198,-0.323,-0.3263,-0.3297,-0.3333,-0.3378,-0.3394,-0.3381,-0.345,-0.347,-0.3529,-0.3551,-0.3566,-0.352,-0.3546,-0.3572,-0.3573,-0.3573,-0.3495,-0.3488,-0.3568,-0.3568,-0.3568,-0.3567,0,-0.3125,-0.3151,-0.3168,-0.3221,-0.326,-0.3299,-0.3357,-0.3388,-0.3406,-0.3436,-0.3484,-0.3513,-0.3545,-0.3571,-0.3582,-0.3614,-0.3565,-0.3579,-0.3541,-0.3578,-0.3494,-0.3486,-0.3571,-0.3571,-0.357,-0.3569,0,0,-0.3083,-0.316,-0.3168,-0.319,-0.3277,-0.3308,-0.3373,-0.3434,-0.346,-0.3504,-0.353,-0.3603,-0.3599,-0.3622,-0.3639,-0.3637,-0.3601,-0.3608,-0.3606,-0.3512,-0.3507,-0.3337,-0.3311,-0.3611,-0.361,-0.361,-0.3434,0,-0.3087,-0.3138,-0.319,-0.3246,-0.3277,-0.3343,-0.3396,-0.3457,-0.3499,-0.3534,-0.3575,-0.3607,-0.3627,-0.3633,-0.364,-0.3629,-0.3586,-0.3644,-0.3501,-0.3496,-0.3326,-0.33,-0.3112,-0.2927,-0.3425,-0.3424,-0.3423,0,-0.3099,-0.313,-0.3172,-0.3246,-0.3266,-0.3306,-0.3381,-0.3435,-0.3511,-0.354,-0.3583,-0.3606,-0.3641,-0.3632,-0.36,-0.3631,-0.3559,-0.353,-0.3523,-0.3345,-0.3312,-0.298,-0.2893,-0.2894,-0.341,-0.3411,-0.3412,0,-0.3044,-0.3125,-0.3146,-0.3178,-0.3267,-0.3291,-0.3336,-0.3421,-0.3454,-0.3528,-0.3543,-0.3595,-0.3593,-0.3564,-0.3516,-0.3551,-0.3429,-0.3472,-0.3234,-0.322,-0.302,-0.2988,-0.29,-0.3392,-0.3392,-0.3392,-0.3393,0,-0.3032,-0.3052,-0.3115,-0.313,-0.3152,-0.3237,-0.3266,-0.333,-0.3401,-0.3415,-0.3521,-0.3516,-0.3574,-0.3525,-0.3484,-0.3311,-0.3393,-0.3205,-0.3162,-0.3024,-0.2996,-0.2957,-0.3045,-0.3386,-0.3387,-0.3389,-0.339,0,-0.296,-0.3009,-0.3033,-0.3105,-0.312,-0.3129,-0.3197,-0.3215,-0.3311,-0.3327,-0.3343,-0.3434,-0.337,-0.3368,-0.3294,-0.3227,-0.3043,-0.3013,-0.2814,-0.2751,-0.2542,-0.2639,-0.2524,-0.244,-0.273,-0.2725,-0.2721,0,-0.2921,-0.2927,-0.2978,-0.297,-0.2992,-0.3019,-0.3028,-0.3138,-0.3154,-0.3247,-0.3229,-0.3217,-0.3156,-0.2995,-0.2863,-0.2701,-0.2792,-0.2445,-0.2491,-0.2466,-0.2546,-0.2654,-0.2602,-0.2231,-0.2223,-0.2216,-0.2211,0,-0.2843,-0.2859,-0.2867,-0.2846,-0.2845,-0.285,-0.2873,-0.2878,-0.2987,-0.3008,-0.2995,-0.296,-0.2801,-0.2568,-0.2374,-0.2274,-0.24,-0.23,-0.2343,-0.2186,-0.2231,-0.2149,-0.2397,-0.2152,-0.2158,-0.2162,-0.2166,-0.2168,-0.2766,-0.2742,-0.2741,-0.2703,-0.2699,-0.2659,-0.2592,-0.2629,-0.2618,-0.2582,-0.2683,-0.2553,-0.2385,-0.208,-0.1958,-0.1724,-0.1916,-0.1694,-0.1818,-0.1932,-0.1843,-0.1922,-0.1603,-0.1606,-0.1608,-0.161,-0.1612,0,-0.2668,-0.2637,-0.2595,-0.2533,-0.2447,-0.25,-0.2459,-0.2353,-0.2253,-0.225,-0.2193,-0.2025,-0.177,-0.1649,-0.1412,-0.131,-0.1306,-0.1318,-0.1463,-0.1434,-0.1519,-0.1488,-0.1045,-0.1045,-0.1045,-0.1045,-0.1045,-0.1045,-0.2614,-0.2536,-0.2496,-0.2298,-0.2237,-0.2056,-0.1987,-0.1863,-0.1795,-0.1621,-0.153,-0.1486,-0.1465,-0.1556,-0.136,-0.1238,-0.1287,-0.1206,-0.1323,-0.1443,-0.149,-0.1536,-0.1523,-0.1095,-0.1095,-0.1116,-0.1117,-0.1117]},{"header":{"parameterUnit":"m.s-1","parameterCategory":2,"la1":30.2991,"la2":30.254,"lo1":-89.0895,"lo2":-89.0444,"dy":0.0017,"dx":0.0017,"nx":28,"ny":28,"refTime":"2025-03-20T21:00:00:Z","depth":"0","parameterNumber":3,"parameterNumberName":"V-component_of_CURRENTS"},"data":[0,0,0,0,0,0,0,0,0,0,0,0,0,0,0,0,0,0,0,0,0,0,0,0,0,0,0,0,0,0,0,0,0,0,0,0,0,0,0,0,0,0,0,0,0,0,0,0,0,0,0,0,0,0,0,0,0,0,-0.0352,-0.0351,0,-0.0264,-0.0263,-0.0261,-0.0178,-0.0177,-0.0176,-0.0175,-0.0001,0.0003,0.0007,0,0,0,0,0,0,0,0,0,0,0,0,0,-0.0424,-0.0423,-0.0352,-0.0351,-0.035,-0.0264,-0.0263,-0.0261,-0.0178,-0.0177,-0.0176,-0.0175,-0.0002,0.0002,0.0007,0,0,0,0,0,0,0,0,0,0,0,0,0,-0.0367,-0.0423,-0.0352,-0.0301,-0.0295,-0.0264,-0.0262,-0.0261,-0.0178,-0.0177,-0.0176,-0.0175,-0.0004,0.0002,0.0008,0.0021,0,0,0.0026,0.0028,0,0,0,0,0,0,0,0,-0.037,-0.0364,-0.0309,-0.0304,-0.0298,-0.0233,-0.0224,-0.0163,-0.0178,-0.0219,-0.0175,-0.0174,-0.0074,-0.0062,-0.0045,0.0029,0.0037,0.0026,0.003,0.0032,0.0034,0,0,0,0,0,0,0,-0.0374,-0.0367,-0.0313,-0.0308,-0.0302,-0.0274,-0.0265,-0.0212,-0.015,-0.0215,-0.021,-0.0206,-0.007,-0.0051,-0.004,0.004,0.0026,0.0031,0.0035,0.0037,0.0141,0.014,0,0,0,0,0,0,-0.0394,-0.0371,-0.0316,-0.0311,-0.0336,-0.0274,-0.0263,-0.0253,-0.0152,-0.0137,-0.0207,-0.0202,-0.0061,-0.0047,-0.0033,-0.0018,0.0032,0.0038,0.0041,0.0142,0.0141,0.014,0,0,0,0,0,0,-0.0396,-0.039,-0.032,-0.0342,-0.0332,-0.0275,-0.0263,-0.0252,-0.0231,-0.0147,-0.013,-0.0199,-0.006,-0.0041,0.0006,-0.001,0.004,0.0046,0.0143,0.0141,0.014,0.0017,0,0,0,0,0,0,-0.0398,-0.0391,-0.0392,-0.0343,-0.0331,-0.0315,-0.0264,-0.0251,-0.0232,-0.0225,-0.0134,-0.0117,-0.0057,-0.0004,0.0011,-0.0001,0.005,0.0144,0.0142,0.0141,0.0022,0.0012,0.0003,0,0,0,0,0,-0.0401,-0.0412,-0.0392,-0.0386,-0.0333,-0.0316,-0.0308,-0.0261,-0.0233,-0.0236,-0.0173,-0.012,-0.0002,0.0,0.0018,0.0007,0.0144,0.0142,0.0141,0.0027,0.0014,0.0004,0,0,0,0,0,0,-0.0441,-0.0404,-0.0381,-0.0378,-0.0355,-0.0304,-0.0302,-0.0271,-0.0224,-0.0212,-0.0128,-0.0107,-0.0073,-0.0017,-0.0017,0.0032,0.0079,0.0081,-0.0014,-0.0025,-0.0034,-0.0048,0.0055,0,0,0,0,0,-0.0454,-0.045,-0.0412,-0.041,-0.0402,-0.0354,-0.034,-0.0312,-0.0265,-0.0243,-0.0182,-0.0116,-0.0067,-0.0035,0.0018,0.0046,0.0116,0.0051,0.0041,0.0032,0.0033,0.0127,0.0127,0.0134,0.0134,0.0134,0,0,-0.0467,-0.0448,-0.0444,-0.0419,-0.0393,-0.0402,-0.0342,-0.0332,-0.0333,-0.0232,-0.021,-0.0148,-0.0068,-0.0039,-0.0019,0.0007,0.0062,0.003,0.0022,0.0028,0.0125,0.0125,0.0125,0.0133,0.0133,0.0133,0,0,-0.0505,-0.0478,-0.0492,-0.0488,-0.0466,-0.0438,-0.0442,-0.0398,-0.0371,-0.0347,-0.0276,-0.0222,-0.015,-0.0094,-0.0057,-0.0086,0.0006,-0.0075,-0.0128,-0.0038,-0.0038,-0.0036,0.0031,0.0039,-0.0076,-0.0077,-0.0077,0,-0.0523,-0.0538,-0.0496,-0.052,-0.0527,-0.0464,-0.0493,-0.0462,-0.0409,-0.0388,-0.0356,-0.0242,-0.0175,-0.0129,-0.0141,-0.0106,-0.0047,-0.0095,-0.0051,-0.0047,-0.0044,0.0025,0.0036,-0.0083,-0.0082,-0.0081,-0.0081,0,-0.0581,-0.0596,-0.0609,-0.0616,-0.0616,-0.0633,-0.0597,-0.0581,-0.0539,-0.0497,-0.0443,-0.0347,-0.0274,-0.0252,-0.0203,-0.0156,-0.0121,-0.0078,-0.0024,-0.0052,0.0022,0.0036,-0.0091,-0.0089,-0.0087,-0.0086,0,0,-0.0613,-0.0643,-0.065,-0.0678,-0.0674,-0.0682,-0.0687,-0.0668,-0.0664,-0.0591,-0.0568,-0.0477,-0.0408,-0.0362,-0.0287,-0.021,-0.0141,-0.0144,-0.0137,-0.0083,0.0044,0.0096,0.0117,-0.0089,-0.0087,-0.0085,0.0078,0,-0.0673,-0.0742,-0.0738,-0.0806,-0.0841,-0.0806,-0.0819,-0.079,-0.074,-0.0699,-0.0584,-0.053,-0.0456,-0.0418,-0.0332,-0.0184,-0.0108,-0.019,0.0069,0.0077,0.0123,0.0134,0.0222,0.0378,0.0092,0.0095,0.0096,0,-0.0738,-0.0778,-0.0855,-0.0907,-0.0919,-0.0944,-0.0949,-0.0951,-0.0875,-0.0831,-0.0746,-0.0648,-0.0529,-0.0458,-0.022,-0.0276,-0.0131,-0.0014,-0.0004,0.0102,0.0155,0.0366,0.0414,0.0676,0.0118,0.0117,0.0115,0,-0.0792,-0.0863,-0.0927,-0.095,-0.0991,-0.1013,-0.1023,-0.0985,-0.0988,-0.0901,-0.0877,-0.072,-0.0628,-0.0433,-0.0193,-0.0199,0.0078,0.0107,0.0287,0.0292,0.0448,0.0463,0.0781,0.0278,0.0278,0.0277,0.0277,0,-0.0863,-0.0918,-0.0959,-0.1002,-0.1078,-0.1077,-0.1127,-0.1111,-0.1078,-0.1081,-0.0942,-0.0891,-0.0613,-0.0423,-0.0212,0.0082,0.0073,0.0287,0.0347,0.0404,0.0412,0.0713,0.0795,0.0283,0.0282,0.0281,0.028,0,-0.0911,-0.0939,-0.1027,-0.1088,-0.1109,-0.116,-0.1211,-0.1237,-0.1197,-0.1192,-0.1167,-0.0992,-0.0737,-0.0458,-0.012,0.0064,0.0498,0.0436,0.047,0.0531,0.0924,0.0992,0.1311,0.1469,0.0661,0.0663,0.0665,0,-0.0941,-0.099,-0.1089,-0.1144,-0.1176,-0.1244,-0.129,-0.1292,-0.1316,-0.1254,-0.1249,-0.102,-0.0848,-0.0343,0.0053,0.0447,0.0632,0.0736,0.0744,0.0974,0.1096,0.1118,0.123,0.09,0.0904,0.0907,0.0909,0,-0.1002,-0.1034,-0.1102,-0.1215,-0.1287,-0.1368,-0.1426,-0.1467,-0.1461,-0.1442,-0.1362,-0.122,-0.0719,-0.0223,0.0297,0.0543,0.0934,0.0809,0.1072,0.1329,0.1356,0.1527,0.0739,0.0937,0.0934,0.0932,0.0931,0.093,-0.1038,-0.1101,-0.1187,-0.1282,-0.1376,-0.1467,-0.1511,-0.1565,-0.1599,-0.1571,-0.1446,-0.1213,-0.0447,0.0313,0.0593,0.1268,0.1179,0.1473,0.154,0.1544,0.1698,0.0945,0.1189,0.1188,0.1187,0.1186,0.1185,0,-0.1074,-0.1141,-0.1246,-0.1362,-0.1448,-0.1487,-0.1579,-0.1588,-0.1614,-0.1595,-0.1494,-0.075,-0.0008,0.0698,0.165,0.1992,0.2063,0.2164,0.2259,0.2344,0.1733,0.1747,0.2095,0.2095,0.2094,0.2094,0.2094,0.2094,-0.1103,-0.1191,-0.1239,-0.1376,-0.1453,-0.1528,-0.1567,-0.1584,-0.1556,-0.1382,-0.1074,-0.083,0.0278,0.1736,0.2603,0.2684,0.2971,0.2922,0.3063,0.2683,0.2625,0.2569,0.2609,0.3132,0.3133,0.3687,0.3693,0.3697]}],[{"header":{"parameterUnit":"m.s-1","parameterCategory":2,"la1":30.2991,"la2":30.254,"lo1":-89.0895,"lo2":-89.0444,"dy":0.0017,"dx":0.0017,"nx":28,"ny":28,"refTime":"2025-03-20T21:00:00:Z","depth":"2","parameterNumber":2,"parameterNumberName":"U-component_of_CURRENTS"},"data":[0,0,0,0,0,0,0,0,0,0,0,0,0,0,0,0,0,0,0,0,0,0,0,0,0,0,0,0,0,0,0,0,0,0,0,0,0,0,0,0,0,0,0,0,0,0,0,0,0,0,0,0,0,0,0,0,0,0,-0.3215,-0.3216,0,-0.3276,-0.3276,-0.3276,-0.3247,-0.3246,-0.3244,-0.3243,-0.3255,-0.3257,-0.3258,0,0,0,0,0,0,0,0,0,0,0,0,0,-0.3135,-0.3136,-0.3215,-0.3216,-0.3217,-0.3275,-0.3276,-0.3277,-0.3247,-0.3246,-0.3244,-0.3242,-0.3255,-0.3257,-0.3259,0,0,0,0,0,0,0,0,0,0,0,0,0,-0.3177,-0.3136,-0.3215,-0.3211,-0.3212,-0.3275,-0.3276,-0.3277,-0.3247,-0.3245,-0.3244,-0.3242,-0.3254,-0.3257,-0.3259,-0.3313,0,0,-0.3266,-0.3267,0,0,0,0,0,0,0,0,-0.3175,-0.318,-0.3211,-0.3212,-0.3213,-0.3254,-0.3252,-0.3287,-0.3248,-0.3231,-0.3243,-0.3241,-0.3254,-0.3256,-0.3269,-0.3313,-0.3314,-0.3266,-0.3268,-0.3269,-0.3269,0,0,0,0,0,0,0,-0.3172,-0.3178,-0.3236,-0.3212,-0.3213,-0.3228,-0.3231,-0.3259,-0.325,-0.3233,-0.3231,-0.3243,-0.3253,-0.3266,-0.3269,-0.3314,-0.3266,-0.3268,-0.327,-0.3271,-0.3398,-0.34,0,0,0,0,0,0,-0.3169,-0.3175,-0.3235,-0.3239,-0.3191,-0.3231,-0.3234,-0.3241,-0.3251,-0.3251,-0.3244,-0.3241,-0.3263,-0.3266,-0.3269,-0.3322,-0.3269,-0.3271,-0.3272,-0.3396,-0.3398,-0.34,0,0,0,0,0,0,-0.3167,-0.3174,-0.3232,-0.321,-0.3219,-0.3234,-0.3242,-0.3243,-0.3248,-0.3261,-0.3259,-0.3247,-0.3262,-0.3266,-0.3295,-0.3322,-0.3272,-0.3274,-0.3393,-0.3396,-0.3399,-0.3435,0,0,0,0,0,0,-0.3164,-0.3172,-0.317,-0.321,-0.322,-0.3266,-0.3244,-0.3246,-0.326,-0.3256,-0.3264,-0.3263,-0.3261,-0.3291,-0.3297,-0.3324,-0.3276,-0.3391,-0.3395,-0.3398,-0.3431,-0.3439,-0.3445,0,0,0,0,0,-0.3161,-0.3172,-0.317,-0.3177,-0.3218,-0.3268,-0.3274,-0.3277,-0.3262,-0.3272,-0.3278,-0.3262,-0.3319,-0.3295,-0.3301,-0.333,-0.3389,-0.3394,-0.3398,-0.3428,-0.3437,-0.3445,0,0,0,0,0,0,-0.3135,-0.3171,-0.3169,-0.3189,-0.3223,-0.3263,-0.3273,-0.3281,-0.3297,-0.3286,-0.3288,-0.329,-0.3326,-0.3331,-0.3304,-0.338,-0.3352,-0.3358,-0.3373,-0.3382,-0.3388,-0.3372,-0.3278,0,0,0,0,0,-0.3131,-0.3142,-0.3186,-0.3199,-0.3216,-0.3245,-0.3262,-0.3271,-0.3295,-0.3299,-0.3307,-0.3324,-0.3355,-0.3366,-0.3389,-0.3434,-0.3395,-0.3458,-0.3465,-0.3471,-0.3464,-0.3447,-0.3451,-0.3415,-0.3415,-0.3415,0,0,-0.3122,-0.3145,-0.3149,-0.3193,-0.3215,-0.3254,-0.3249,-0.3281,-0.3311,-0.3301,-0.3332,-0.3347,-0.3373,-0.3417,-0.3435,-0.342,-0.3457,-0.3476,-0.3481,-0.347,-0.3452,-0.3455,-0.3458,-0.3418,-0.3417,-0.3417,0,0,-0.3121,-0.3134,-0.3145,-0.3183,-0.3227,-0.3256,-0.3266,-0.331,-0.3321,-0.3367,-0.3368,-0.3397,-0.3442,-0.3466,-0.3485,-0.3549,-0.3494,-0.356,-0.3582,-0.3567,-0.3568,-0.3569,-0.3495,-0.349,-0.3564,-0.3564,-0.3564,0,-0.3102,-0.3131,-0.3158,-0.3194,-0.3224,-0.3257,-0.329,-0.3326,-0.3372,-0.3388,-0.3377,-0.3447,-0.3467,-0.3526,-0.3548,-0.3563,-0.3519,-0.3544,-0.3572,-0.3572,-0.3573,-0.3497,-0.349,-0.3566,-0.3566,-0.3566,-0.3566,0,-0.3122,-0.3149,-0.3166,-0.3216,-0.3254,-0.3292,-0.335,-0.3381,-0.34,-0.343,-0.3479,-0.3508,-0.3542,-0.3568,-0.3579,-0.3612,-0.3564,-0.3578,-0.354,-0.3578,-0.3496,-0.3488,-0.357,-0.3569,-0.3568,-0.3568,0,0,-0.3077,-0.3156,-0.3165,-0.3187,-0.327,-0.3301,-0.3365,-0.3426,-0.3453,-0.3498,-0.3525,-0.3597,-0.3595,-0.3618,-0.3636,-0.3634,-0.3601,-0.3607,-0.3605,-0.3514,-0.3511,-0.3342,-0.3316,-0.3611,-0.3611,-0.3611,-0.3439,0,-0.308,-0.313,-0.3184,-0.324,-0.327,-0.3335,-0.3389,-0.3449,-0.3491,-0.3528,-0.3569,-0.3602,-0.3622,-0.3629,-0.3638,-0.3627,-0.3587,-0.3642,-0.3505,-0.35,-0.333,-0.3305,-0.3095,-0.2913,-0.3431,-0.343,-0.3429,0,-0.3087,-0.3121,-0.3164,-0.3239,-0.3258,-0.3298,-0.3373,-0.3427,-0.3503,-0.3533,-0.3578,-0.3601,-0.3637,-0.3629,-0.36,-0.363,-0.3561,-0.3533,-0.3526,-0.3349,-0.3317,-0.2969,-0.2879,-0.3415,-0.3416,-0.3417,-0.3418,0,-0.303,-0.3111,-0.3135,-0.3166,-0.3257,-0.3282,-0.3328,-0.3413,-0.3447,-0.3522,-0.3538,-0.3591,-0.3591,-0.3564,-0.3519,-0.3553,-0.3435,-0.3478,-0.3244,-0.3229,-0.3012,-0.2978,-0.3401,-0.3401,-0.3401,-0.3402,-0.3402,0,-0.3013,-0.3035,-0.3103,-0.3119,-0.314,-0.3227,-0.3258,-0.3321,-0.3394,-0.3411,-0.3517,-0.3513,-0.3572,-0.3527,-0.3488,-0.3319,-0.3401,-0.3214,-0.3173,-0.3015,-0.2986,-0.3409,-0.3412,-0.3395,-0.3397,-0.3398,-0.3399,0,-0.2938,-0.2991,-0.3017,-0.3094,-0.3109,-0.3117,-0.3189,-0.3208,-0.3305,-0.3325,-0.3341,-0.3433,-0.3372,-0.3373,-0.3303,-0.3236,-0.3126,-0.3027,-0.2806,-0.2741,-0.2933,-0.2941,-0.2762,-0.2754,-0.2748,-0.2743,-0.2738,0,-0.2902,-0.2908,-0.2963,-0.2956,-0.298,-0.3009,-0.3019,-0.3131,-0.315,-0.3247,-0.3229,-0.322,-0.3157,-0.3001,-0.2879,-0.272,-0.2887,-0.2441,-0.2482,-0.2888,-0.2867,-0.2885,-0.2901,-0.2198,-0.219,-0.2183,-0.2177,0,-0.2826,-0.2843,-0.2855,-0.2835,-0.2835,-0.284,-0.2865,-0.2872,-0.2986,-0.3002,-0.2992,-0.2955,-0.2809,-0.2561,-0.237,-0.2276,-0.247,-0.229,-0.276,-0.2399,-0.2345,-0.2329,-0.2365,-0.2115,-0.2122,-0.2126,-0.2129,-0.2132,-0.2753,-0.2732,-0.2735,-0.2695,-0.2693,-0.2652,-0.2586,-0.261,-0.2594,-0.254,-0.2654,-0.2497,-0.2448,-0.2029,-0.1887,-0.1789,-0.197,-0.1921,-0.1948,-0.1981,-0.1953,-0.1892,-0.1568,-0.1571,-0.1573,-0.1575,-0.1577,0,-0.2659,-0.2632,-0.2592,-0.2532,-0.2447,-0.2497,-0.2458,-0.2351,-0.2229,-0.2187,-0.2108,-0.1865,-0.1638,-0.1614,-0.1341,-0.1271,-0.1324,-0.1247,-0.1342,-0.1401,-0.1454,-0.1408,-0.0873,-0.0871,-0.087,-0.0868,0,0,-0.2608,-0.2535,-0.2496,-0.2302,-0.2243,-0.2063,-0.1995,-0.1854,-0.1767,-0.1588,-0.147,-0.1484,-0.1532,-0.1192,-0.1108,-0.0951,-0.1177,-0.0899,-0.1458,-0.1627,-0.1679,-0.1825,-0.1814,0,0,0,0,0]},{"header":{"parameterUnit":"m.s-1","parameterCategory":2,"la1":30.2991,"la2":30.254,"lo1":-89.0895,"lo2":-89.0444,"dy":0.0017,"dx":0.0017,"nx":28,"ny":28,"refTime":"2025-03-20T21:00:00:Z","depth":"2","parameterNumber":3,"parameterNumberName":"V-component_of_CURRENTS"},"data":[0,0,0,0,0,0,0,0,0,0,0,0,0,0,0,0,0,0,0,0,0,0,0,0,0,0,0,0,0,0,0,0,0,0,0,0,0,0,0,0,0,0,0,0,0,0,0,0,0,0,0,0,0,0,0,0,0,0,-0.0305,-0.0305,0,-0.0219,-0.0218,-0.0216,-0.0135,-0.0134,-0.0133,-0.0133,0.0039,0.0043,0.0047,0,0,0,0,0,0,0,0,0,0,0,0,0,-0.0376,-0.0375,-0.0305,-0.0304,-0.0304,-0.0219,-0.0218,-0.0216,-0.0135,-0.0134,-0.0133,-0.0132,0.0038,0.0042,0.0047,0,0,0,0,0,0,0,0,0,0,0,0,0,-0.032,-0.0375,-0.0305,-0.0255,-0.025,-0.0219,-0.0218,-0.0216,-0.0135,-0.0134,-0.0133,-0.0132,0.0036,0.0042,0.0048,0.0062,0,0,0.0066,0.0068,0,0,0,0,0,0,0,0,-0.0324,-0.0317,-0.0263,-0.0259,-0.0253,-0.0189,-0.018,-0.012,-0.0135,-0.0175,-0.0132,-0.0131,-0.0032,-0.0021,-0.0003,0.007,0.0077,0.0066,0.007,0.0072,0.0074,0,0,0,0,0,0,0,-0.0328,-0.0321,-0.0268,-0.0263,-0.0256,-0.0229,-0.022,-0.0168,-0.0107,-0.0172,-0.0166,-0.0162,-0.0028,-0.0009,0.0001,0.008,0.0066,0.0071,0.0075,0.0077,0.0179,0.0178,0,0,0,0,0,0,-0.0347,-0.0324,-0.027,-0.0265,-0.029,-0.0229,-0.0219,-0.0208,-0.0109,-0.0095,-0.0163,-0.0159,-0.002,-0.0006,0.0008,0.0022,0.0072,0.0078,0.0081,0.018,0.0179,0.0178,0,0,0,0,0,0,-0.0349,-0.0343,-0.0274,-0.0296,-0.0286,-0.023,-0.0218,-0.0207,-0.0187,-0.0104,-0.0087,-0.0156,-0.0018,-0.0,0.0046,0.003,0.008,0.0086,0.0181,0.0179,0.0178,0.0057,0,0,0,0,0,0,-0.0351,-0.0344,-0.0345,-0.0297,-0.0285,-0.0269,-0.0219,-0.0206,-0.0188,-0.0181,-0.0092,-0.0075,-0.0016,0.0037,0.0052,0.0039,0.009,0.0182,0.018,0.0179,0.0062,0.0051,0.0043,0,0,0,0,0,-0.0354,-0.0365,-0.0345,-0.0339,-0.0287,-0.0271,-0.0262,-0.0216,-0.0189,-0.0192,-0.013,-0.0078,0.0038,0.004,0.0058,0.0047,0.0182,0.018,0.0179,0.0066,0.0053,0.0043,0,0,0,0,0,0,-0.0394,-0.0357,-0.0334,-0.0331,-0.0309,-0.0258,-0.0256,-0.0226,-0.018,-0.0169,-0.0085,-0.0065,-0.0032,0.0023,0.0024,0.0072,0.0118,0.012,0.0026,0.0015,0.0006,-0.0008,0.0095,0,0,0,0,0,-0.0406,-0.0402,-0.0365,-0.0363,-0.0356,-0.0308,-0.0295,-0.0267,-0.0221,-0.0199,-0.0139,-0.0074,-0.0026,0.0006,0.0057,0.0085,0.0154,0.0089,0.0079,0.0071,0.0072,0.0164,0.0163,0.0172,0.0172,0.0172,0,0,-0.0419,-0.04,-0.0396,-0.0372,-0.0346,-0.0355,-0.0296,-0.0286,-0.0288,-0.0188,-0.0167,-0.0106,-0.0027,0.0001,0.0021,0.0046,0.0101,0.0069,0.0061,0.0067,0.0162,0.0162,0.0161,0.0171,0.0171,0.0171,0,0,-0.0457,-0.043,-0.0445,-0.044,-0.0418,-0.0391,-0.0395,-0.0352,-0.0326,-0.0302,-0.0233,-0.018,-0.0109,-0.0054,-0.0018,-0.0046,0.0044,-0.0036,-0.0089,-0.0001,-0.0,0.0001,0.0069,0.0077,-0.0037,-0.0038,-0.0038,0,-0.0473,-0.049,-0.0448,-0.0471,-0.0478,-0.0416,-0.0446,-0.0415,-0.0363,-0.0343,-0.0311,-0.02,-0.0133,-0.0089,-0.0101,-0.0067,-0.0008,-0.0055,-0.0013,-0.001,-0.0006,0.0063,0.0074,-0.0044,-0.0043,-0.0042,-0.0042,0,-0.053,-0.0547,-0.056,-0.0566,-0.0567,-0.0583,-0.0547,-0.0533,-0.0492,-0.045,-0.0397,-0.0304,-0.0233,-0.0211,-0.0163,-0.0117,-0.0081,-0.0039,0.0014,-0.0015,0.006,0.0074,-0.0052,-0.005,-0.0048,-0.0047,0,0,-0.0554,-0.0591,-0.0598,-0.0628,-0.0623,-0.0631,-0.0636,-0.0618,-0.0614,-0.0544,-0.0521,-0.0433,-0.0365,-0.0319,-0.0246,-0.0171,-0.0103,-0.0106,-0.0098,-0.0044,0.0081,0.0132,0.0152,-0.0052,-0.005,-0.0048,0.0116,0,-0.0611,-0.0683,-0.0682,-0.0751,-0.0786,-0.0753,-0.0766,-0.0739,-0.069,-0.065,-0.0538,-0.0485,-0.0412,-0.0375,-0.0291,-0.0145,-0.007,-0.0152,0.0106,0.0113,0.0159,0.0169,0.0123,0.0269,0.013,0.0133,0.0134,0,-0.0669,-0.0714,-0.0793,-0.0851,-0.0862,-0.0889,-0.0894,-0.0897,-0.0823,-0.0781,-0.0697,-0.0601,-0.0485,-0.0416,-0.018,-0.0236,-0.0093,0.0023,0.0033,0.0137,0.019,0.0281,0.03,0.0158,0.0156,0.0154,0.0153,0,-0.0716,-0.0792,-0.086,-0.0884,-0.0931,-0.0955,-0.0967,-0.093,-0.0934,-0.085,-0.0826,-0.0672,-0.0582,-0.0389,-0.0152,-0.0159,0.0116,0.0143,0.0321,0.0326,0.0368,0.0374,0.0313,0.0312,0.0312,0.0311,0.0311,0,-0.0779,-0.0837,-0.0889,-0.0937,-0.1012,-0.1016,-0.1068,-0.1052,-0.1023,-0.1027,-0.0891,-0.084,-0.0567,-0.0379,-0.0171,0.012,0.0111,0.0321,0.0381,0.0322,0.0321,0.0292,0.0288,0.0318,0.0316,0.0315,0.0314,0,-0.0818,-0.0855,-0.0946,-0.1018,-0.1041,-0.1091,-0.1149,-0.1177,-0.114,-0.1137,-0.1112,-0.0939,-0.0686,-0.0412,-0.0078,0.0103,0.0368,0.0471,0.0373,0.0419,0.0519,0.0506,0.0687,0.069,0.0693,0.0695,0.0697,0,-0.0848,-0.0897,-0.1006,-0.1062,-0.1099,-0.1169,-0.1219,-0.1228,-0.1255,-0.1196,-0.1192,-0.0965,-0.0787,-0.0288,0.0071,0.0453,0.0456,0.0631,0.0619,0.0522,0.0562,0.0544,0.0528,0.0618,0.062,0.0621,0.0621,0,-0.0905,-0.0937,-0.1014,-0.1129,-0.1204,-0.1284,-0.1349,-0.1395,-0.1398,-0.137,-0.129,-0.1143,-0.0679,-0.0253,0.025,0.0461,0.0565,0.0665,0.0618,0.0525,0.0471,0.0505,0.0489,0.063,0.0629,0.0629,0.0628,0.0628,-0.094,-0.1005,-0.1101,-0.1191,-0.1291,-0.1379,-0.1426,-0.145,-0.1475,-0.1361,-0.1276,-0.0944,-0.0618,0.0161,0.0409,0.0675,0.069,0.0782,0.0774,0.0766,0.0723,0.0676,0.0865,0.0866,0.0866,0.0867,0.0867,0,-0.0974,-0.1046,-0.1153,-0.1273,-0.1358,-0.1398,-0.1496,-0.1479,-0.1455,-0.1259,-0.107,-0.0588,-0.0162,0.0181,0.0597,0.0813,0.0761,0.0845,0.0733,0.0725,0.0718,0.0667,0.0798,0.0798,0.0798,0.0798,0,0,-0.1002,-0.1094,-0.1139,-0.1276,-0.1361,-0.1432,-0.1472,-0.1404,-0.1261,-0.0991,-0.0686,-0.035,-0.0032,0.027,0.0481,0.0655,0.0633,0.0664,0.0702,0.0534,0.0524,0.0671,0.0584,0,0,0,0,0]}],[{"header":{"parameterUnit":"m.s-1","parameterCategory":2,"la1":30.2991,"la2":30.254,"lo1":-89.0895,"lo2":-89.0444,"dy":0.0017,"dx":0.0017,"nx":28,"ny":28,"refTime":"2025-03-20T21:00:00:Z","depth":"4","parameterNumber":2,"parameterNumberName":"U-component_of_CURRENTS"},"data":[0,0,0,0,0,0,0,0,0,0,0,0,0,0,0,0,0,0,0,0,0,0,0,0,0,0,0,0,0,0,0,0,0,0,0,0,0,0,0,0,0,0,0,0,0,0,0,0,0,0,0,0,0,0,0,0,0,0,-0.2076,-0.2078,0,-0.2189,-0.219,-0.2191,-0.2249,-0.2249,-0.2249,-0.2249,-0.2406,-0.241,-0.2414,0,0,0,0,0,0,0,0,0,0,0,0,0,-0.195,-0.1952,-0.2076,-0.2078,-0.2079,-0.2189,-0.219,-0.2191,-0.2249,-0.2249,-0.2249,-0.225,-0.2404,-0.2409,-0.2414,0,0,0,0,0,0,0,0,0,0,0,0,0,-0.2027,-0.1952,-0.2076,-0.2122,-0.2127,-0.2188,-0.219,-0.2192,-0.2249,-0.2249,-0.2249,-0.225,-0.2403,-0.2409,-0.2415,-0.2447,0,0,-0.2433,-0.2436,0,0,0,0,0,0,0,0,-0.2022,-0.2031,-0.2114,-0.2119,-0.2125,-0.2206,-0.2203,-0.228,-0.2249,-0.2202,-0.225,-0.225,-0.2344,-0.2354,-0.2373,-0.2454,-0.2461,-0.2433,-0.2437,-0.244,-0.2441,0,0,0,0,0,0,0,-0.2017,-0.2027,-0.212,-0.2115,-0.2122,-0.215,-0.2161,-0.2218,-0.227,-0.2206,-0.221,-0.2225,-0.2347,-0.2367,-0.2377,-0.2463,-0.2433,-0.2439,-0.2442,-0.2445,-0.2679,-0.2682,0,0,0,0,0,0,-0.2003,-0.2022,-0.2116,-0.2123,-0.2075,-0.2152,-0.2164,-0.2179,-0.2268,-0.2282,-0.2224,-0.2227,-0.2356,-0.237,-0.2383,-0.2515,-0.244,-0.2445,-0.2449,-0.2677,-0.268,-0.2683,0,0,0,0,0,0,-0.2,-0.2011,-0.2112,-0.2076,-0.2091,-0.2154,-0.217,-0.2181,-0.2236,-0.2282,-0.2297,-0.2272,-0.2357,-0.2374,-0.2468,-0.2518,-0.2448,-0.2453,-0.2673,-0.2677,-0.2681,-0.2723,0,0,0,0,0,0,-0.1996,-0.2009,-0.2032,-0.2075,-0.2092,-0.2171,-0.2171,-0.2183,-0.2243,-0.2248,-0.2328,-0.234,-0.2359,-0.2459,-0.2474,-0.2525,-0.2458,-0.267,-0.2675,-0.268,-0.2718,-0.2728,-0.2736,0,0,0,0,0,-0.1991,-0.2017,-0.2032,-0.2045,-0.2116,-0.2173,-0.2186,-0.223,-0.2245,-0.2278,-0.2335,-0.2339,-0.2501,-0.2467,-0.2483,-0.2537,-0.2668,-0.2674,-0.2679,-0.2714,-0.2726,-0.2736,0,0,0,0,0,0,-0.1979,-0.2027,-0.2044,-0.2085,-0.2136,-0.2184,-0.2222,-0.2251,-0.2322,-0.2338,-0.2376,-0.2393,-0.2491,-0.2514,-0.2475,-0.2621,-0.2585,-0.2594,-0.2606,-0.2617,-0.2626,-0.2601,-0.2463,0,0,0,0,0,-0.1985,-0.2016,-0.2066,-0.2104,-0.2131,-0.2184,-0.2219,-0.2251,-0.2309,-0.2342,-0.2399,-0.2463,-0.2524,-0.257,-0.2624,-0.271,-0.2676,-0.2756,-0.2765,-0.2772,-0.2765,-0.2759,-0.2765,-0.2702,-0.2702,-0.2702,0,0,-0.1992,-0.2022,-0.2042,-0.2104,-0.2146,-0.2197,-0.2207,-0.2271,-0.2326,-0.2349,-0.2454,-0.2499,-0.2554,-0.2643,-0.269,-0.2674,-0.2772,-0.278,-0.2785,-0.2774,-0.2765,-0.2771,-0.2775,-0.2706,-0.2705,-0.2705,0,0,-0.2011,-0.2049,-0.2081,-0.2123,-0.2193,-0.2231,-0.2257,-0.2331,-0.2379,-0.2476,-0.2504,-0.2576,-0.2686,-0.2724,-0.2757,-0.2852,-0.2815,-0.2884,-0.2917,-0.2911,-0.2915,-0.2918,-0.2863,-0.2861,-0.2893,-0.2893,-0.2893,0,-0.2025,-0.2061,-0.2102,-0.2144,-0.2185,-0.2249,-0.2298,-0.236,-0.246,-0.2502,-0.252,-0.2665,-0.2717,-0.2803,-0.2841,-0.287,-0.2841,-0.2867,-0.2918,-0.292,-0.2922,-0.2866,-0.2863,-0.2896,-0.2896,-0.2895,-0.2895,0,-0.205,-0.21,-0.2125,-0.2196,-0.225,-0.2304,-0.2384,-0.2459,-0.2527,-0.2578,-0.2687,-0.2751,-0.2827,-0.2868,-0.2891,-0.2951,-0.2914,-0.292,-0.2878,-0.293,-0.2868,-0.2864,-0.29,-0.2899,-0.2898,-0.2897,0,0,-0.2024,-0.2125,-0.2136,-0.2176,-0.228,-0.2323,-0.2428,-0.2525,-0.2583,-0.2686,-0.275,-0.287,-0.2892,-0.2931,-0.2967,-0.2979,-0.2975,-0.2966,-0.2964,-0.2887,-0.2924,-0.2716,-0.2691,-0.2988,-0.2989,-0.2989,-0.2865,0,-0.2035,-0.2109,-0.2165,-0.2252,-0.2296,-0.2388,-0.2471,-0.2568,-0.2655,-0.2736,-0.2807,-0.2886,-0.2921,-0.2959,-0.2981,-0.2988,-0.2971,-0.3006,-0.2905,-0.2901,-0.2691,-0.2682,-0.299,-0.2861,-0.286,-0.2859,-0.2859,0,-0.2022,-0.208,-0.2161,-0.227,-0.2299,-0.237,-0.2497,-0.258,-0.2702,-0.2766,-0.2849,-0.2898,-0.2965,-0.2969,-0.2979,-0.3001,-0.2963,-0.2946,-0.2941,-0.2726,-0.2686,-0.2806,-0.285,-0.2851,-0.2852,-0.2852,-0.2853,0,-0.1944,-0.2066,-0.2132,-0.2169,-0.231,-0.2376,-0.2459,-0.259,-0.265,-0.2779,-0.2817,-0.2904,-0.2936,-0.2935,-0.2928,-0.2956,-0.2885,-0.2913,-0.2674,-0.2657,-0.2863,-0.2861,-0.2872,-0.2872,-0.2872,-0.2872,-0.2873,0,-0.1896,-0.1952,-0.2108,-0.2136,-0.2218,-0.2336,-0.2424,-0.2523,-0.2638,-0.2675,-0.2818,-0.2832,-0.293,-0.2915,-0.2902,-0.2753,-0.2858,-0.2649,-0.2608,-0.2883,-0.2886,-0.2857,-0.2857,-0.2868,-0.2869,-0.287,-0.287,0,-0.1787,-0.1891,-0.1968,-0.2127,-0.2179,-0.2235,-0.2381,-0.2425,-0.2566,-0.2614,-0.2649,-0.277,-0.2742,-0.2779,-0.2752,-0.2677,-0.2587,-0.2501,-0.275,-0.273,-0.2367,-0.2372,-0.2214,-0.2205,-0.2198,-0.2192,-0.2187,0,-0.1736,-0.1768,-0.1928,-0.1965,-0.2043,-0.2147,-0.22,-0.2364,-0.2401,-0.2538,-0.2525,-0.2562,-0.2609,-0.2391,-0.2469,-0.2375,-0.2358,-0.229,-0.2366,-0.2321,-0.2299,-0.2315,-0.2328,-0.2176,-0.2174,-0.2172,-0.217,0,-0.1632,-0.1702,-0.1754,-0.1832,-0.1901,-0.1966,-0.2059,-0.2062,-0.2219,-0.2364,-0.2321,-0.2299,-0.2244,-0.223,-0.2157,-0.2112,-0.2338,-0.2216,-0.2232,-0.2303,-0.2274,-0.2262,-0.2284,-0.2145,-0.2149,-0.2151,-0.2153,0,-0.1545,-0.1548,-0.1619,-0.1671,-0.1744,-0.1756,-0.1831,-0.186,-0.1915,-0.2081,-0.2045,-0.2102,-0.2197,-0.2084,-0.2029,-0.1954,-0.1939,-0.1896,-0.1929,-0.1957,-0.1935,-0.1864,-0.1543,0,0,0,0,0,-0.1453,-0.1432,-0.1456,-0.1489,-0.155,-0.1602,-0.1719,-0.1799,-0.1945,-0.1845,-0.1944,-0.1886,-0.1814,-0.1855,-0.172,-0.1904,-0.1944,-0.1741,-0.1913,-0.2008,-0.2037,-0.2038,0,0,0,0,0,0,-0.1386,-0.1395,-0.1394,-0.1326,-0.1318,-0.1367,-0.1436,-0.154,-0.1508,-0.1665,-0.1632,-0.1754,-0.171,-0.1842,-0.1674,-0.168,-0.1744,-0.1787,-0.1781,-0.1992,-0.2018,-0.2041,-0.2052,0,0,0,0,0]},{"header":{"parameterUnit":"m.s-1","parameterCategory":2,"la1":30.2991,"la2":30.254,"lo1":-89.0895,"lo2":-89.0444,"dy":0.0017,"dx":0.0017,"nx":28,"ny":28,"refTime":"2025-03-20T21:00:00:Z","depth":"4","parameterNumber":3,"parameterNumberName":"V-component_of_CURRENTS"},"data":[0,0,0,0,0,0,0,0,0,0,0,0,0,0,0,0,0,0,0,0,0,0,0,0,0,0,0,0,0,0,0,0,0,0,0,0,0,0,0,0,0,0,0,0,0,0,0,0,0,0,0,0,0,0,0,0,0,0,-0.0067,-0.0067,0,-0.0027,-0.0026,-0.0025,0.0026,0.0027,0.0027,0.0028,0.0141,0.0143,0.0145,0,0,0,0,0,0,0,0,0,0,0,0,0,-0.0084,-0.0084,-0.0067,-0.0067,-0.0067,-0.0027,-0.0026,-0.0025,0.0026,0.0027,0.0027,0.0028,0.014,0.0143,0.0146,0,0,0,0,0,0,0,0,0,0,0,0,0,-0.0062,-0.0084,-0.0067,-0.0038,-0.0035,-0.0027,-0.0026,-0.0025,0.0026,0.0027,0.0028,0.0029,0.0139,0.0143,0.0146,0.015,0,0,0.0157,0.0159,0,0,0,0,0,0,0,0,-0.0063,-0.0061,-0.0043,-0.004,-0.0037,-0.0006,0.0009,0.0036,0.0026,0.0005,0.0028,0.0029,0.0096,0.0103,0.0111,0.0155,0.016,0.0158,0.016,0.0161,0.0162,0,0,0,0,0,0,0,-0.0065,-0.0062,-0.0049,-0.0042,-0.0039,-0.0022,-0.0017,0.0015,0.0048,0.0007,0.001,0.0011,0.0099,0.0107,0.0114,0.0162,0.0157,0.0161,0.0163,0.0164,0.0215,0.0214,0,0,0,0,0,0,-0.0076,-0.0064,-0.005,-0.0048,-0.005,-0.0022,-0.0017,-0.0015,0.0046,0.0055,0.001,0.0013,0.0101,0.011,0.0119,0.0115,0.0161,0.0165,0.0167,0.0215,0.0214,0.0213,0,0,0,0,0,0,-0.0077,-0.0075,-0.0052,-0.0057,-0.0053,-0.0023,-0.0021,-0.0015,-0.0005,0.0047,0.0058,0.0013,0.0102,0.0113,0.0139,0.0121,0.0166,0.017,0.0216,0.0215,0.0214,0.0116,0,0,0,0,0,0,-0.0077,-0.0076,-0.0079,-0.0058,-0.0053,-0.0057,-0.0022,-0.0015,-0.0008,-0.0003,0.0053,0.0065,0.0103,0.0133,0.0142,0.0126,0.0173,0.0217,0.0216,0.0214,0.0121,0.0112,0.0104,0,0,0,0,0,-0.0078,-0.0089,-0.008,-0.0078,-0.0058,-0.0058,-0.0054,-0.0028,-0.0009,-0.0014,0.0025,0.0063,0.013,0.0135,0.0146,0.0131,0.0218,0.0216,0.0214,0.0124,0.0114,0.0105,0,0,0,0,0,0,-0.0095,-0.0084,-0.0073,-0.0079,-0.0074,-0.005,-0.0052,-0.0035,-0.001,-0.0001,0.0053,0.0066,0.0081,0.0119,0.0123,0.0141,0.018,0.018,0.0107,0.0098,0.009,0.0082,0.0176,0,0,0,0,0,-0.0103,-0.0108,-0.0096,-0.0101,-0.0101,-0.0078,-0.0074,-0.0059,-0.0035,-0.0023,0.0014,0.0054,0.008,0.0099,0.013,0.0141,0.0197,0.0138,0.013,0.0123,0.0124,0.0188,0.0186,0.0207,0.0207,0.0207,0,0,-0.0112,-0.0106,-0.0108,-0.0105,-0.0096,-0.0112,-0.0072,-0.0074,-0.0085,-0.0014,-0.0012,0.0027,0.0076,0.0085,0.0095,0.0116,0.0146,0.012,0.0114,0.0119,0.0186,0.0184,0.0183,0.0206,0.0206,0.0206,0,0,-0.0138,-0.0127,-0.0144,-0.0147,-0.0145,-0.0136,-0.0141,-0.0125,-0.0114,-0.011,-0.0064,-0.0034,0.0004,0.0036,0.0057,0.0025,0.0099,0.0031,-0.0014,0.0048,0.0047,0.0047,0.0112,0.0118,0.0028,0.0028,0.0028,0,-0.015,-0.0169,-0.0149,-0.0172,-0.0184,-0.0154,-0.0184,-0.0174,-0.0151,-0.0145,-0.0121,-0.0062,-0.0019,-0.0003,-0.0016,0.0006,0.0057,0.0016,0.0037,0.0039,0.004,0.0107,0.0116,0.0023,0.0024,0.0024,0.0025,0,-0.0189,-0.0211,-0.0223,-0.0244,-0.0255,-0.0274,-0.0267,-0.027,-0.0252,-0.0233,-0.0211,-0.0151,-0.0112,-0.01,-0.0067,-0.0045,-0.0008,0.0017,0.0061,0.0032,0.0105,0.0115,0.0016,0.0018,0.0019,0.0021,0,0,-0.0195,-0.0244,-0.0247,-0.0281,-0.0296,-0.0312,-0.0337,-0.0347,-0.0359,-0.0321,-0.0319,-0.027,-0.0223,-0.0196,-0.0146,-0.0094,-0.0041,-0.0041,-0.0035,0.0022,0.0102,0.01,0.0112,-0.0011,-0.0009,-0.0008,0.0147,0,-0.0233,-0.0298,-0.0309,-0.0377,-0.0413,-0.041,-0.0441,-0.0442,-0.0425,-0.0414,-0.0343,-0.0318,-0.0265,-0.0243,-0.0185,-0.0075,-0.0017,-0.0085,0.0124,0.013,0.013,0.0123,-0.0004,0.0155,0.0158,0.016,0.0161,0,-0.0262,-0.0307,-0.0382,-0.0456,-0.0471,-0.0508,-0.0547,-0.0566,-0.0541,-0.0522,-0.0476,-0.0413,-0.0335,-0.0283,-0.0105,-0.015,-0.0035,0.0055,0.0064,0.0105,0.0148,0.0193,0.0181,0.018,0.0178,0.0177,0.0176,0,-0.0272,-0.0356,-0.0422,-0.0446,-0.052,-0.0557,-0.059,-0.0596,-0.0614,-0.058,-0.0572,-0.0471,-0.0405,-0.0262,-0.0074,-0.0086,0.0138,0.0148,0.0257,0.0259,0.0259,0.0258,0.0277,0.0277,0.0277,0.0276,0.0276,0,-0.0299,-0.0352,-0.0439,-0.0475,-0.0562,-0.0595,-0.0661,-0.0676,-0.0684,-0.0696,-0.0622,-0.058,-0.0394,-0.0246,-0.0085,0.0124,0.0138,0.0253,0.0297,0.0214,0.0205,0.0267,0.0264,0.0282,0.0281,0.028,0.0279,0,-0.0291,-0.0348,-0.0431,-0.0529,-0.0571,-0.0624,-0.0718,-0.0752,-0.076,-0.0769,-0.0758,-0.064,-0.0443,-0.0248,0.001,0.0113,0.0309,0.0383,0.0287,0.0324,0.0391,0.0381,0.0504,0.0505,0.0506,0.0507,0.0507,0,-0.0292,-0.0334,-0.046,-0.0516,-0.0568,-0.0659,-0.0721,-0.0778,-0.0807,-0.079,-0.078,-0.0619,-0.0512,-0.0137,0.0054,0.035,0.0388,0.0468,0.0413,0.0383,0.0414,0.0402,0.0391,0.0509,0.0509,0.051,0.051,0,-0.0281,-0.0322,-0.0383,-0.0503,-0.059,-0.0692,-0.0779,-0.0814,-0.086,-0.0877,-0.0765,-0.06,-0.0376,-0.0111,0.0119,0.0327,0.0395,0.0479,0.0478,0.0427,0.0391,0.0418,0.0406,0.0513,0.0513,0.0512,0.0512,0,-0.0255,-0.0282,-0.0358,-0.0469,-0.0577,-0.0677,-0.0748,-0.0777,-0.0811,-0.0811,-0.0757,-0.0544,-0.0423,-0.012,0.0096,0.0291,0.0325,0.0355,0.0361,0.0359,0.0256,0.0184,0.0285,0,0,0,0,0,-0.0219,-0.0239,-0.0323,-0.0431,-0.0542,-0.0609,-0.0755,-0.0816,-0.0879,-0.0798,-0.0784,-0.0573,-0.0268,-0.0124,0.0078,0.0104,0.0348,0.0339,0.0383,0.0532,0.0528,0.043,0,0,0,0,0,0,-0.0189,-0.0234,-0.0286,-0.0378,-0.0439,-0.0556,-0.0652,-0.0716,-0.0677,-0.0708,-0.0522,-0.0504,-0.0178,-0.0325,0.0114,0.0162,0.021,0.0472,0.0475,0.0535,0.0531,0.0528,0.0425,0,0,0,0,0]}]]